[Date Prev][Date Next][Thread Prev][Thread Next] - [Date Index][Thread Index][Author Index]

2 Line ISS Keps 8-24



ISS
1 25544U 98067A   01236.41917824  .00016457  00000-0  22826-3 0  3785
2 25544  51.6401 104.9587 0008036  30.3684 323.3679 15.57164551157729


----
Via the sarex mailing list at AMSAT.ORG courtesy of AMSAT-NA.
To unsubscribe, send "unsubscribe sarex" to Majordomo@amsat.org



AMSAT Top AMSAT Home